GAOFEN 11 2

导读 | 星芒AI

高分十一号02星(GAOFEN 11 2)是中国高分辨率对地观测系统的重要组成部分,主要用于国土普查、城市规划、环境监测等领域。该卫星具备高分辨率光学成像能力,能够提供清晰的地表图像。作为高分十一号系列的第二颗卫星,它与首星形成星座运行,提升数据获取效率和覆盖能力,服务于国家资源调查、灾害预警和国防建设等需求。

基本信息
目录编号:
46396
目录名称:
GAOFEN 11 2
国际标识:
2020-064A
轨道中心:
EARTH
卫星名称:
GAOFEN 11 2
卫星全名:
--
卫星状态:
在轨 (已飞行1925 天)
发射日期:
2020-09-07 UTC
国别 :
中国 (CN)
星等 :
--
轨道信息
数据来源 国际轨道数据
星历时间: 2025-12-15T07:08:16+0800
19小时前
查看轨道信息
半长轴: 6873.524km
偏心率: 0.001761
轨道倾角: 97.493°
近地点辐角 245.299°
升交点赤经 110.043°
平近点角 114.641°
近地点: 483.284km
远地点: 507.494km
周期: 94.521分钟
每日圈数: 15.234691
详细信息
使用方式:
暂无
2D轨道图
3D轨道图
轨道高度分析图
轨道倾角分析图
轨道综合分析图
查看轨道综合分析图